Location: Strohbehn Observatory
(42.4649°N, 93.8239°W)
Time: 12:08:23
(UTC-05:00)

Daily predictions for brighter satellites

Satellite Brightness Start Highest point End
(mag) Time Altitude Azimuth Time Altitude Azimuth Time Altitude Azimuth
NOSS 3-4 (A) 3.9 21:17:58 10° NW 21:25:02 89° NE 21:32:35 10° SE
NOSS 3-4 (C) 3.9 21:18:04 10° NW 21:25:08 88° NE 21:32:41 10° SE
CZ-3B DEB 4.5 21:16:22 10° WSW 21:25:40 64° NNW 21:38:31 10° NE
Tiangong 1 0.9 21:29:27 10° WSW 21:32:12 54° SSE 21:34:56 10° E
Meteor 2-1 Rocket 4.3 21:30:51 10° N 21:36:45 83° E 21:42:27 10° SSE
Aureole 2 Rocket 4.2 21:32:58 10° NW 21:36:46 37° WSW 21:40:21 10° S
Cosmos 2219 Rocket 3.9 21:31:56 10° NW 21:36:50 31° WSW 21:41:41 10° SSW
SAR-Lupe-4 3.6 21:34:16 10° SSE 21:37:50 89° E 21:41:27 10° NNW
Cosmos 2333 Rocket 3.6 21:34:03 10° NW 21:39:09 36° WSW 21:44:14 10° S
Terra 4.0 21:38:40 10° E 21:40:18 12° ENE 21:41:56 10° NE
Cosmos 2221 2.7 21:39:30 10° N 21:43:51 58° E 21:48:10 10° SSE
Okean 3 Rocket 3.8 21:39:33 10° S 21:43:56 54° E 21:48:19 10° NNE
Meteor 1-29 3.0 21:41:14 10° NNE 21:44:41 84° WNW 21:48:07 10° SSW
Cosmos 2208 Rocket 4.3 21:44:03 10° NNW 21:49:18 57° ENE 21:54:24 11° SE
Envisat 4.2 21:45:44 10° S 21:50:32 42° W 21:55:22 10° NNW
NOAA 11 4.3 21:46:44 10° SSE 21:52:05 68° ENE 21:57:30 10° N
RESURS DK-1 4.0 21:52:40 10° N 21:56:04 23° NE 21:59:21 10° ESE
Cosmos 1242 Rocket 2.8 21:55:42 10° N 21:59:22 54° ENE 22:02:30 13° SSE
SL-08 RB Rocket 4.4 21:56:03 12° SE 21:59:56 41° ENE 22:04:15 10° N
SPOT 1/Viking Rocket 4.3 21:56:35 12° SE 22:00:54 38° ENE 22:05:37 10° N
Cosmos 1140 Rocket 4.2 21:57:22 10° SW 22:02:27 57° WNW 22:07:32 10° NNE
Cosmos 1766 Rocket 4.1 21:58:38 10° SSE 22:02:40 40° E 22:06:45 10° NNE
USA 32 4.4 21:57:51 10° SSW 22:03:04 68° W 22:08:19 10° N
Cosmos 1570 Rocket 4.0 21:58:32 10° NNW 22:03:53 83° ENE 22:08:43 12° SSE
Meteor 1-21 Rocket 4.3 21:59:52 10° S 22:05:28 63° E 22:11:01 10° NNE
USA 245 3.5 22:03:34 16° SE 22:06:00 47° ENE 22:09:53 10° N
Resurs 01 Rocket 4.5 22:05:28 10° WSW 22:07:14 12° W 22:09:00 10° WNW
Milstar 3 Cent rocket 4.4 22:02:20 10° WSW 22:08:58 31° S 22:18:44 14° SE
Cosmos 2297 Rocket 3.5 22:05:54 10° SW 22:11:16 43° WNW 22:16:41 10° NNE
Cosmos 2228 Rocket 4.3 22:07:44 10° NNE 22:11:41 28° ENE 22:14:28 16° ESE
Cosmos 1867 3.5 22:12:22 10° SSW 22:17:47 76° ESE 22:23:16 10° NE
H-2A R/B 3.8 22:17:20 12° ESE 22:19:48 19° ENE 22:22:49 10° NNE
Cosmos 1340 Rocket 4.4 22:16:52 10° SW 22:20:35 36° WNW 22:24:22 10° N
MetOp-B 4.3 22:17:12 11° S 22:22:20 77° WSW 22:27:44 10° NNW
Cosmos 1300 3.6 22:19:32 10° N 22:23:05 35° ENE 22:25:01 21° SE
Cosmos 2263 Rocket 3.6 22:21:44 16° ESE 22:23:31 19° E 22:27:20 10° ENE
Cosmos 1459 Rocket 4.1 22:17:17 10° N 22:23:38 85° W 22:29:36 11° S
Cosmos 2100 Rocket 4.2 22:17:26 10° N 22:23:45 79° W 22:30:06 10° S
Cosmos 2061 Rocket 4.1 22:18:22 10° N 22:24:47 89° E 22:30:42 13° S
Cosmos 1626 4.3 22:25:43 12° E 22:26:09 12° E 22:27:42 10° ENE
Cosmos 1726 2.2 22:27:53 10° N 22:31:33 58° E 22:33:27 25° SSE
ATLAS 5 CENTAUR R/B 2.4 22:27:03 10° SW 22:31:39 59° NW 22:36:44 10° NNE
SPOT 5 2.9 22:28:20 16° SSE 22:32:10 83° WSW 22:37:16 10° NNW
Cosmos 2084 3.6 22:28:53 10° SW 22:32:51 66° NW 22:36:41 10° NNE
Lacrosse 5 2.2 22:29:35 10° NW 22:34:37 59° NE 22:38:08 19° ESE
Cosmos 2123 Rocket 4.1 22:30:34 14° S 22:35:46 61° E 22:41:53 10° NNE
Cosmos 2173 Rocket 4.2 22:30:45 10° NNW 22:36:51 68° W 22:42:44 11° S
Cosmos 468 Rocket 3.9 22:33:22 10° NNW 22:38:32 75° ENE 22:41:44 23° SSE
Cosmos 371 Rocket 3.6 22:37:02 10° N 22:41:45 52° ENE 22:44:22 25° SE
Nimbus 7 Rocket 4.4 22:38:06 10° NNE 22:44:10 79° ESE 22:50:06 10° SSW
USA 234 3.2 22:37:57 10° NE 22:44:31 88° SE 22:51:04 10° SW
H-2A R/B 2.1 22:41:25 20° SSE 22:45:09 90° ESE 22:50:37 10° NNW
Abrixas rocket 3.3 22:42:16 10° NW 22:45:22 39° NNE 22:47:34 17° E
Cosmos 1603 3.7 22:40:08 10° NNW 22:45:50 83° ENE 22:49:18 24° SSE
ERS-1 Rocket 4.4 22:42:20 10° SSW 22:46:51 33° W 22:51:25 10° NNW
Cosmos 1802 Rocket 4.5 22:49:42 10° NNW 22:55:40 56° W 23:00:59 13° SSW
Cosmos 1455 3.9 22:54:03 10° NNE 22:56:58 20° ENE 22:57:48 19° E
Cosmos 1725 Rocket 4.0 22:52:09 10° N 22:58:27 89° E 23:02:33 23° S
Cosmos 220 Rocket 3.9 22:57:31 23° S 23:00:09 70° ESE 23:04:33 10° NNE
Landsat 7 3.8 22:59:49 28° SSE 23:02:22 86° WSW 23:07:10 10° NNW
SL-16 R/B 3.9 22:57:55 10° NW 23:02:30 26° WSW 23:07:03 10° SSW
Cosmos 1943 3.5 22:57:28 10° NNW 23:03:03 58° ENE 23:05:59 28° SE
deb Chang Zheng 4 4.1 23:01:47 10° NNE 23:05:57 42° E 23:07:03 35° SE
ARGOS 4.2 23:01:49 13° SSW 23:06:12 39° W 23:11:16 10° NNW
Tiangong 1 0.7 23:04:58 10° W 23:07:45 81° N 23:07:55 75° NE
CZ-4C R/B 4.2 23:09:43 11° E 23:09:43 11° E 23:10:09 10° E
CZ-4B R/B 4.2 23:06:42 10° NNE 23:11:37 39° E 23:13:10 31° SE
CZ-4 R/B 4.2 23:08:13 10° NNE 23:12:56 47° E 23:14:22 35° SE
Cosmos 2058 2.9 23:15:04 42° SSE 23:16:16 63° E 23:20:27 10° NNE
Cosmos 1703 3.6 23:16:14 44° SE 23:16:55 50° E 23:20:48 10° NNE
Terra 1.8 23:15:15 35° SSE 23:17:19 87° WSW 23:22:06 10° NNW
DMSP B5D2-2 4.2 23:12:04 10° N 23:17:19 77° WNW 23:21:02 20° SSW
Cosmos 1356 3.3 23:18:00 60° SSE 23:18:29 72° E 23:21:59 10° NNE
Cosmos 1500 Rocket 3.7 23:22:20 31° SSW 23:24:26 75° W 23:28:55 10° N
Meteor 1-11 4.3 23:22:54 26° S 23:26:22 89° WNW 23:32:14 10° N
ERBS 2.1 23:24:19 10° NW 23:27:43 81° NE 23:27:57 74° ESE
Cosmos 1354 Rocket 4.2 23:26:33 38° SSE 23:28:05 51° ESE 23:33:09 10° NNE
Cosmos 2151 3.1 23:30:35 37° SSW 23:32:13 73° W 23:36:32 10° N
CARTOSAT-1 4.0 23:32:40 36° SSW 23:34:08 54° W 23:38:22 10° NNW
RESURS DK-1 3.5 23:30:25 10° NW 23:34:10 33° WSW 23:35:16 28° SW
SME Rocket 3.4 23:34:18 41° ESE 23:35:06 49° ENE 23:39:25 10° N
CZ-2C R/B 4.0 23:32:30 10° NE 23:36:35 22° E 23:37:05 22° E
BREEZE-M DEB (TANK) 4.2 23:36:25 10° WNW 23:39:19 38° NNE 23:48:18 10° E
Meteor 1-27 4.4 23:34:26 10° NNW 23:40:15 70° W 23:42:49 34° S
Spot 4 3.8 23:39:25 45° SSE 23:40:54 83° ENE 23:45:48 10° NNW
Cosmos 1486 Rocket 4.3 23:37:19 19° SW 23:41:03 64° WNW 23:46:20 10° NNE
SL-24 R/B 4.4 23:41:33 56° SE 23:42:20 76° ENE 23:46:29 10° N
Cosmos 1805 Rocket 3.7 23:42:51 49° ESE 23:43:18 51° E 23:47:31 10° NNE
Cosmos 304 Rocket 3.8 23:43:00 10° NNW 23:47:48 72° ENE 23:48:57 50° SE
Cosmos 841 Rocket 3.8 23:44:29 10° NNW 23:49:39 59° WSW 23:51:18 40° SSW
Cosmos 1633 Rocket 4.0 23:49:53 33° E 23:49:57 33° E 23:53:51 10° NNE
Cosmos 2233 Rocket 4.4 23:46:50 10° NNW 23:52:53 55° W 23:55:56 29° SSW
Cosmos 1763 Rocket 4.2 23:48:11 10° NNW 23:53:00 42° WSW 23:54:37 32° SW
H-2A R/B 2.9 23:54:28 34° SW 23:55:31 41° W 23:59:35 10° NNW
